| time (UTC) | temp F | wind direction | speed MPH | gust MPH | rain 1hr in | rain 24hr in | rain mn in | humidity % | barometer mb |
| 20260906031017 | 94 | 0.0 | 0.0 | 0.00 | 0.00 | 0.00 | 54 | 1010.2 | |
| 20260906030015 | 94 | 0.0 | 0.0 | 0.00 | 0.00 | 0.00 | 52 | 1010.1 | |
| 20260906025015 | 94 | 0.0 | 0.0 | 0.00 | 0.00 | 0.00 | 51 | 1009.9 | |
| 20260906024035 | 95 | 0.0 | 0.0 | 0.00 | 0.00 | 0.00 | 50 | 1009.7 | |
| 20260906023015 | 95 | 0.0 | 0.0 | 0.00 | 0.00 | 0.00 | 48 | 1009.6 | |
| 20260906022015 | 95 | 0.0 | 0.0 | 0.00 | 0.00 | 0.00 | 47 | 1009.5 | |
| 20260906021017 | 96 | 0.0 | 0.0 | 0.00 | 0.00 | 0.00 | 47 | 1009.4 | |
| 20260906020037 | 96 | 0.0 | 0.0 | 0.00 | 0.00 | 0.00 | 46 | 1009.3 | |
| 20260906015015 | 97 | 0.0 | 0.0 | 0.00 | 0.00 | 0.00 | 46 | 1009.2 | |
| 20260906014015 | 97 | 0.0 | 0.0 | 0.00 | 0.00 | 0.00 | 45 | 1009.0 | |
| 20260906013016 | 97 | 0.0 | 0.0 | 0.00 | 0.00 | 0.00 | 45 | 1008.9 | |
| 20260906012017 | 98 | 0.0 | 0.0 | 0.00 | 0.00 | 0.00 | 44 | 1008.8 | |
| 20260906011015 | 98 | 0.0 | 0.0 | 0.00 | 0.00 | 0.00 | 44 | 1008.7 | |
| 20260906010015 | 99 | 0.0 | 0.0 | 0.00 | 0.00 | 0.00 | 44 | 1008.6 | |
| 20260906005055 | 99 | 0.0 | 0.0 | 0.00 | 0.00 | 0.00 | 42 | 1008.5 | |
| 20260906004015 | 99 | 0.0 | 0.0 | 0.00 | 0.00 | 0.00 | 42 | 1008.5 | |
| 20260906003015 | 100 | 0.0 | 0.0 | 0.00 | 0.00 | 0.00 | 41 | 1008.4 | |
| 20260906002015 | 100 | 0.0 | 0.0 | 0.00 | 0.00 | 0.00 | 40 | 1008.5 | |
| 20260906001015 | 100 | 0.0 | 0.0 | 0.00 | 0.00 | 0.00 | 39 | 1008.5 | |
| 20260906000035 | 101 | 0.0 | 0.0 | 0.00 | 0.00 | 0.00 | 39 | 1008.5 | |
| 20260905235017 | 102 | 0.0 | 0.0 | 0.00 | 0.00 | 0.00 | 40 | 1008.5 | |
| 20260905234035 | 102 | 0.0 | 0.0 | 0.00 | 0.00 | 0.00 | 39 | 1008.5 | |
| 20260905233015 | 103 | 0.0 | 0.0 | 0.00 | 0.00 | 0.00 | 39 | 1008.6 | |
| 20260905232015 | 103 | 0.0 | 0.0 | 0.00 | 0.00 | 0.00 | 37 | 1008.7 | |
| 20260905231015 | 104 | 0.0 | 0.0 | 0.00 | 0.00 | 0.00 | 35 | 1008.6 | |
| 20260905230015 | 104 | 0.0 | 0.0 | 0.00 | 0.00 | 0.00 | 36 | 1008.6 | |
| 20260905225015 | 104 | 0.0 | 0.0 | 0.00 | 0.00 | 0.00 | 35 | 1008.6 | |
| 20260905224015 | 105 | 0.0 | 0.0 | 0.00 | 0.00 | 0.00 | 35 | 1008.4 | |
| 20260905223015 | 105 | 0.0 | 0.0 | 0.00 | 0.00 | 0.00 | 35 | 1008.4 | |
| 20260905222035 | 106 | 0.0 | 0.0 | 0.00 | 0.00 | 0.00 | 34 | 1008.5 | |
| 20260905221015 | 107 | 0.0 | 0.0 | 0.00 | 0.00 | 0.00 | 36 | 1008.5 | |
| 20260905220015 | 107 | 0.0 | 0.0 | 0.00 | 0.00 | 0.00 | 36 | 1008.6 | |
| 20260905215036 | 108 | 0.0 | 0.0 | 0.00 | 0.00 | 0.00 | 35 | 1008.5 | |
| 20260905214017 | 107 | 0.0 | 0.0 | 0.00 | 0.00 | 0.00 | 34 | 1008.5 | |
| 20260905213036 | 108 | 0.0 | 0.0 | 0.00 | 0.00 | 0.00 | 35 | 1008.6 | |
| 20260905212017 | 109 | 0.0 | 0.0 | 0.00 | 0.00 | 0.00 | 32 | 1008.6 | |
| 20260905211016 | 111 | 0.0 | 0.0 | 0.00 | 0.00 | 0.00 | 30 | 1008.8 | |
| 20260905210015 | 112 | 0.0 | 0.0 | 0.00 | 0.00 | 0.00 | 29 | 1008.7 | |
| 20260905205035 | 113 | 0.0 | 0.0 | 0.00 | 0.00 | 0.00 | 29 | 1008.7 | |
| 20260905204015 | 113 | 0.0 | 0.0 | 0.00 | 0.00 | 0.00 | 28 | 1008.8 | |
| 20260905203035 | 113 | 0.0 | 0.0 | 0.00 | 0.00 | 0.00 | 28 | 1009.0 | |
| 20260905202016 | 114 | 0.0 | 0.0 | 0.00 | 0.00 | 0.00 | 28 | 1009.1 | |
| 20260905201016 | 114 | 0.0 | 0.0 | 0.00 | 0.00 | 0.00 | 28 | 1009.2 | |
| 20260905200058 | 114 | 0.0 | 0.0 | 0.00 | 0.00 | 0.00 | 29 | 1009.3 | |
| 20260905195018 | 113 | 0.0 | 0.0 | 0.00 | 0.00 | 0.00 | 29 | 1009.3 | |
| 20260905194017 | 113 | 0.0 | 0.0 | 0.00 | 0.00 | 0.00 | 30 | 1009.6 | |
| 20260905193017 | 113 | 0.0 | 0.0 | 0.00 | 0.00 | 0.00 | 30 | 1009.7 | |
| 20260905192017 | 112 | 0.0 | 0.0 | 0.00 | 0.00 | 0.00 | 30 | 1009.9 | |
| 20260905191138 | 112 | 0.0 | 0.0 | 0.00 | 0.00 | 0.00 | 30 | 1009.8 | |
| 20260905190018 | 111 | 0.0 | 0.0 | 0.00 | 0.00 | 0.00 | 30 | 1009.9 | |
| 20260905185017 | 112 | 0.0 | 0.0 | 0.00 | 0.00 | 0.00 | 30 | 1010.1 | |
| 20260905184017 | 112 | 0.0 | 0.0 | 0.00 | 0.00 | 0.00 | 29 | 1010.2 | |
| 20260905183017 | 112 | 0.0 | 0.0 | 0.00 | 0.00 | 0.00 | 31 | 1010.3 | |
| 20260905182017 | 111 | 0.0 | 0.0 | 0.00 | 0.00 | 0.00 | 32 | 1010.4 | |
| 20260905181057 | 111 | 0.0 | 0.0 | 0.00 | 0.00 | 0.00 | 33 | 1010.5 | |
| 20260905180017 | 110 | 0.0 | 0.0 | 0.00 | 0.00 | 0.00 | 33 | 1010.6 | |
| 20260905175017 | 109 | 0.0 | 0.0 | 0.00 | 0.00 | 0.00 | 34 | 1010.6 | |
| 20260905174016 | 109 | 0.0 | 0.0 | 0.00 | 0.00 | 0.00 | 36 | 1010.7 | |
| 20260905173017 | 108 | 0.0 | 0.0 | 0.00 | 0.00 | 0.00 | 37 | 1010.8 | |
| 20260905172016 | 108 | 0.0 | 0.0 | 0.00 | 0.00 | 0.00 | 38 | 1011.0 | |
| 20260905171016 | 107 | 0.0 | 0.0 | 0.00 | 0.00 | 0.00 | 37 | 1011.1 | |
| 20260905170017 | 106 | 0.0 | 0.0 | 0.00 | 0.00 | 0.00 | 38 | 1011.2 | |
| 20260905165017 | 105 | 0.0 | 0.0 | 0.00 | 0.00 | 0.00 | 37 | 1011.3 | |
| 20260905164016 | 105 | 0.0 | 0.0 | 0.00 | 0.00 | 0.00 | 38 | 1011.5 | |
| 20260905163016 | 104 | 0.0 | 0.0 | 0.00 | 0.00 | 0.00 | 41 | 1011.5 | |
| 20260905162017 | 104 | 0.0 | 0.0 | 0.00 | 0.00 | 0.00 | 40 | 1011.5 | |
| 20260905161017 | 104 | 0.0 | 0.0 | 0.00 | 0.00 | 0.00 | 41 | 1011.6 | |
| 20260905160017 | 103 | 0.0 | 0.0 | 0.00 | 0.00 | 0.00 | 42 | 1011.6 | |
| 20260905155016 | 102 | 0.0 | 0.0 | 0.00 | 0.00 | 0.00 | 44 | 1011.6 | |
| 20260905154017 | 101 | 0.0 | 0.0 | 0.00 | 0.00 | 0.00 | 45 | 1011.7 | |
| 20260905153017 | 100 | 0.0 | 0.0 | 0.00 | 0.00 | 0.00 | 47 | 1011.7 | |
| 20260905152017 | 98 | 0.0 | 0.0 | 0.00 | 0.00 | 0.00 | 49 | 1011.7 | |
| 20260905151016 | 96 | 0.0 | 0.0 | 0.00 | 0.00 | 0.00 | 51 | 1011.7 | |
| 20260905150016 | 94 | 0.0 | 0.0 | 0.00 | 0.00 | 0.00 | 55 | 1011.6 | |
| 20260905145016 | 92 | 0.0 | 0.0 | 0.00 | 0.00 | 0.00 | 56 | 1011.6 | |
| 20260905144016 | 91 | 0.0 | 0.0 | 0.00 | 0.00 | 0.00 | 58 | 1011.5 | |
| 20260905143016 | 89 | 0.0 | 0.0 | 0.00 | 0.00 | 0.00 | 61 | 1011.5 | |
| 20260905142036 | 88 | 0.0 | 0.0 | 0.00 | 0.00 | 0.00 | 62 | 1011.5 | |
| 20260905141036 | 88 | 0.0 | 0.0 | 0.00 | 0.00 | 0.00 | 62 | 1011.6 | |
| 20260905140037 | 87 | 0.0 | 0.0 | 0.00 | 0.00 | 0.00 | 62 | 1011.6 | |
| 20260905135016 | 87 | 0.0 | 0.0 | 0.00 | 0.00 | 0.00 | 64 | 1011.5 | |
| 20260905134016 | 86 | 0.0 | 0.0 | 0.00 | 0.00 | 0.00 | 65 | 1011.4 | |
| 20260905133016 | 86 | 0.0 | 0.0 | 0.00 | 0.00 | 0.00 | 65 | 1011.3 | |
| 20260905131016 | 85 | 0.0 | 0.0 | 0.00 | 0.00 | 0.00 | 67 | 1011.2 | |
| 20260905130016 | 85 | 0.0 | 0.0 | 0.00 | 0.00 | 0.00 | 67 | 1011.2 | |
| 20260905125056 | 85 | 0.0 | 0.0 | 0.00 | 0.00 | 0.00 | 68 | 1011.1 | |
| 20260905124016 | 85 | 0.0 | 0.0 | 0.00 | 0.00 | 0.00 | 67 | 1011.0 | |
| 20260905123016 | 85 | 0.0 | 0.0 | 0.00 | 0.00 | 0.00 | 68 | 1010.9 | |
| 20260905122036 | 85 | 0.0 | 0.0 | 0.00 | 0.00 | 0.00 | 70 | 1010.8 | |
| 20260905121016 | 85 | 0.0 | 0.0 | 0.00 | 0.00 | 0.00 | 70 | 1010.8 | |
| 20260905120036 | 85 | 0.0 | 0.0 | 0.00 | 0.00 | 0.00 | 70 | 1010.7 | |
| 20260905115016 | 85 | 0.0 | 0.0 | 0.00 | 0.00 | 0.00 | 70 | 1010.7 | |
| 20260905114016 | 85 | 0.0 | 0.0 | 0.00 | 0.00 | 0.00 | 70 | 1010.6 | |
| 20260905113016 | 86 | 0.0 | 0.0 | 0.00 | 0.00 | 0.00 | 69 | 1010.5 | |
| 20260905112016 | 86 | 0.0 | 0.0 | 0.00 | 0.00 | 0.00 | 69 | 1010.5 | |
| 20260905111016 | 86 | 0.0 | 0.0 | 0.00 | 0.00 | 0.00 | 68 | 1010.4 | |
| 20260905110017 | 86 | 0.0 | 0.0 | 0.00 | 0.00 | 0.00 | 68 | 1010.3 | |
| 20260905105016 | 86 | 0.0 | 0.0 | 0.00 | 0.00 | 0.00 | 68 | 1010.4 | |
| 20260905104017 | 86 | 0.0 | 0.0 | 0.00 | 0.00 | 0.00 | 67 | 1010.4 | |
| 20260905103017 | 86 | 0.0 | 0.0 | 0.00 | 0.00 | 0.00 | 67 | 1010.5 | |
| 20260905102017 | 86 | 0.0 | 0.0 | 0.00 | 0.00 | 0.00 | 66 | 1010.5 | |
| 20260905101019 | 86 | 0.0 | 0.0 | 0.00 | 0.00 | 0.00 | 66 | 1010.6 | |
| 20260905100017 | 86 | 0.0 | 0.0 | 0.00 | 0.00 | 0.00 | 66 | 1010.6 | |
| 20260905095020 | 87 | 0.0 | 0.0 | 0.00 | 0.00 | 0.00 | 66 | 1010.5 | |
| 20260905094017 | 87 | 0.0 | 0.0 | 0.00 | 0.00 | 0.00 | 65 | 1010.5 | |
| 20260905093016 | 87 | 0.0 | 0.0 | 0.00 | 0.00 | 0.00 | 65 | 1010.5 | |
| 20260905092017 | 87 | 0.0 | 0.0 | 0.00 | 0.00 | 0.00 | 64 | 1010.6 | |
| 20260905091017 | 88 | 0.0 | 0.0 | 0.00 | 0.00 | 0.00 | 63 | 1010.6 | |
| 20260905090017 | 88 | 0.0 | 0.0 | 0.00 | 0.00 | 0.00 | 64 | 1010.6 | |
| 20260905085016 | 88 | 0.0 | 0.0 | 0.00 | 0.00 | 0.00 | 64 | 1010.5 | |
| 20260905084056 | 88 | 0.0 | 0.0 | 0.00 | 0.00 | 0.00 | 63 | 1010.5 | |
| 20260905083016 | 88 | 0.0 | 0.0 | 0.00 | 0.00 | 0.00 | 63 | 1010.5 | |
| 20260905082016 | 88 | 0.0 | 0.0 | 0.00 | 0.00 | 0.00 | 63 | 1010.6 | |
| 20260905081016 | 88 | 0.0 | 0.0 | 0.00 | 0.00 | 0.00 | 62 | 1010.7 | |
| 20260905080016 | 89 | 0.0 | 0.0 | 0.00 | 0.00 | 0.00 | 62 | 1010.8 | |
| 20260905075016 | 89 | 0.0 | 0.0 | 0.00 | 0.00 | 0.00 | 61 | 1010.9 | |
| 20260905074017 | 89 | 0.0 | 0.0 | 0.00 | 0.00 | 0.00 | 61 | 1010.9 | |
| 20260905073017 | 89 | 0.0 | 0.0 | 0.00 | 0.00 | 0.00 | 60 | 1010.9 | |
| 20260905072020 | 89 | 0.0 | 0.0 | 0.00 | 0.00 | 0.00 | 59 | 1010.9 | |
| 20260905071017 | 89 | 0.0 | 0.0 | 0.00 | 0.00 | 0.00 | 59 | 1010.9 | |
| 20260905070016 | 89 | 0.0 | 0.0 | 0.00 | 0.00 | 0.00 | 58 | 1011.0 | |
| 20260905065016 | 90 | 0.0 | 0.0 | 0.00 | 0.00 | 0.00 | 58 | 1011.0 | |
| 20260905064016 | 90 | 0.0 | 0.0 | 0.00 | 0.00 | 0.00 | 58 | 1010.9 | |
| 20260905063056 | 90 | 0.0 | 0.0 | 0.00 | 0.00 | 0.00 | 58 | 1011.0 | |
| 20260905062016 | 90 | 0.0 | 0.0 | 0.00 | 0.00 | 0.00 | 57 | 1011.0 | |
| 20260905061016 | 91 | 0.0 | 0.0 | 0.00 | 0.00 | 0.00 | 56 | 1011.1 | |
| 20260905060036 | 91 | 0.0 | 0.0 | 0.00 | 0.00 | 0.00 | 57 | 1011.1 | |
| 20260905055056 | 91 | 0.0 | 0.0 | 0.00 | 0.00 | 0.00 | 56 | 1011.1 | |
| 20260905054056 | 91 | 0.0 | 0.0 | 0.00 | 0.00 | 0.00 | 56 | 1011.1 | |
| 20260905053016 | 91 | 0.0 | 0.0 | 0.00 | 0.00 | 0.00 | 55 | 1011.1 | |
| 20260905052016 | 91 | 0.0 | 0.0 | 0.00 | 0.00 | 0.00 | 56 | 1011.1 | |
| 20260905051016 | 91 | 0.0 | 0.0 | 0.00 | 0.00 | 0.00 | 55 | 1011.1 | |
| 20260905050016 | 91 | 0.0 | 0.0 | 0.00 | 0.00 | 0.00 | 55 | 1011.0 | |
| 20260905045016 | 92 | 0.0 | 0.0 | 0.00 | 0.00 | 0.00 | 54 | 1011.0 | |
| 20260905044015 | 92 | 0.0 | 0.0 | 0.00 | 0.00 | 0.00 | 54 | 1010.9 | |
| 20260905043015 | 92 | 0.0 | 0.0 | 0.00 | 0.00 | 0.00 | 54 | 1010.9 | |
| 20260905042015 | 93 | 0.0 | 0.0 | 0.00 | 0.00 | 0.00 | 53 | 1010.9 | |
| 20260905041015 | 93 | 0.0 | 0.0 | 0.00 | 0.00 | 0.00 | 52 | 1010.8 | |
| 20260905040015 | 93 | 0.0 | 0.0 | 0.00 | 0.00 | 0.00 | 52 | 1010.8 | |
| 20260905035016 | 93 | 0.0 | 0.0 | 0.00 | 0.00 | 0.00 | 51 | 1010.8 | |
| 20260905034017 | 93 | 0.0 | 0.0 | 0.00 | 0.00 | 0.00 | 51 | 1010.8 | |
| 20260905033015 | 94 | 0.0 | 0.0 | 0.00 | 0.00 | 0.00 | 50 | 1010.9 | |
| 20260905032015 | 94 | 0.0 | 0.0 | 0.00 | 0.00 | 0.00 | 49 | 1011.0 |